EW1919 Weather Reports


time (UTC)temp
C
wind
direction
speed
KPH
gust
KPH
rain 1hr
cm
rain 24hr
cm
rain mn
cm
humidity
%
barometer
mb
20260507232424 6 48 0.0 0.0 0.00 0.00 0.00 86 1014.6
20260507231921 6 48 0.0 4.8 0.00 0.00 0.00 87 1014.6
20260507231424 6 47 4.8 4.8 0.00 0.00 0.00 87 1014.7
20260507230924 6 47 0.0 0.0 0.00 0.00 0.00 87 1014.7
20260507230424 6 47 0.0 0.0 0.00 0.00 0.00 86 1014.8
20260507225924 6 47 0.0 0.0 0.00 0.00 0.00 86 1014.8
20260507225424 6 47 0.0 0.0 0.00 0.00 0.00 86 1014.8
20260507224924 6 47 0.0 0.0 0.00 0.00 0.00 86 1014.9
20260507224424 6 47 0.0 4.8 0.00 0.00 0.00 86 1014.9
20260507223924 7 48 0.0 0.0 0.00 0.00 0.00 86 1014.8
20260507223424 7 48 0.0 4.8 0.00 0.00 0.00 85 1014.9
20260507222924 7 48 1.6 4.8 0.00 0.00 0.00 85 1015.0
20260507222421 7 48 0.0 0.0 0.00 0.00 0.00 85 1014.9
20260507221924 7 48 0.0 0.0 0.00 0.00 0.00 85 1014.8
20260507221424 7 48 0.0 6.4 0.00 0.00 0.00 85 1014.8
20260507220924 7 48 0.0 6.4 0.00 0.00 0.00 85 1014.8
20260507220424 7 48 0.0 1.6 0.00 0.00 0.00 86 1014.9
20260507215924 7 15 0.0 0.0 0.00 0.00 0.00 87 1014.9
20260507215424 7 15 0.0 1.6 0.00 0.00 0.00 87 1014.9
20260507214924 7 15 1.6 4.8 0.00 0.00 0.00 87 1014.8
20260507214424 7 15 0.0 6.4 0.00 0.00 0.00 87 1014.9
20260507213924 7 10 0.0 6.4 0.00 0.00 0.00 88 1014.8
20260507213424 7 9 0.0 0.0 0.00 0.00 0.00 89 1014.8
20260507212924 7 9 0.0 4.8 0.00 0.00 0.00 89 1014.8
20260507212424 7 9 0.0 0.0 0.00 0.00 0.00 89 1014.9
20260507211924 7 9 0.0 0.0 0.00 0.00 0.00 89 1014.9
20260507211424 7 9 0.0 4.8 0.00 0.00 0.00 88 1014.9
20260507210924 7 9 0.0 3.2 0.00 0.00 0.00 89 1014.9
20260507210424 8 9 0.0 0.0 0.00 0.00 0.00 89 1014.9
20260507205924 8 9 0.0 0.0 0.00 0.00 0.00 89 1014.8
20260507205424 8 9 0.0 0.0 0.00 0.00 0.00 89 1014.9
20260507204921 8 9 0.0 0.0 0.00 0.00 0.00 89 1015.0
20260507204424 8 9 0.0 0.0 0.00 0.00 0.00 89 1015.0
20260507203924 8 9 0.0 1.6 0.00 0.00 0.00 89 1014.9
20260507203424 8 9 0.0 3.2 0.00 0.00 0.00 90 1015.0
20260507202924 8 261 0.0 0.0 0.00 0.00 0.00 90 1015.0
20260507202424 8 261 0.0 0.0 0.00 0.00 0.00 89 1015.2
20260507201924 8 261 0.0 0.0 0.00 0.00 0.00 89 1015.1
20260507201424 8 261 0.0 0.0 0.00 0.00 0.00 89 1015.1
20260507200921 9 261 0.0 0.0 0.00 0.00 0.00 89 1015.3
20260507200424 9 261 0.0 0.0 0.00 0.00 0.00 89 1015.2
20260507195924 9 261 0.0 0.0 0.00 0.00 0.00 89 1015.1
20260507195424 9 261 0.0 1.6 0.00 0.00 0.00 89 1015.0
20260507194924 10 261 0.0 0.0 0.00 0.00 0.00 88 1015.0
20260507194425 10 261 0.0 0.0 0.00 0.00 0.00 88 1015.0
20260507193924 10 261 0.0 1.6 0.00 0.00 0.00 88 1015.0
20260507193424 10 261 0.0 3.2 0.00 0.00 0.00 88 1015.1
20260507192924 10 261 0.0 0.0 0.00 0.00 0.00 87 1015.0
20260507192424 10 261 0.0 0.0 0.00 0.00 0.00 86 1015.0
20260507191924 10 261 0.0 0.0 0.00 0.00 0.00 85 1015.0
20260507191424 10 261 0.0 0.0 0.00 0.00 0.00 85 1014.9
20260507190924 10 261 0.0 4.8 0.00 0.00 0.00 84 1014.9
20260507190425 11 261 0.0 0.0 0.00 0.00 0.00 85 1014.7
20260507185924 11 261 0.0 1.6 0.00 0.00 0.00 84 1014.6
20260507185424 11 261 0.0 1.6 0.00 0.00 0.00 83 1014.6
20260507184924 11 261 1.6 8.0 0.00 0.00 0.00 83 1014.5
20260507184421 11 250 4.8 6.4 0.00 0.00 0.00 82 1014.5
20260507183924 11 251 4.8 4.8 0.00 0.00 0.00 82 1014.5
20260507183424 12 251 0.0 1.6 0.00 0.00 0.00 82 1014.5
20260507182924 12 249 0.0 0.0 0.00 0.00 0.00 81 1014.5
20260507182424 12 249 0.0 0.0 0.00 0.00 0.00 80 1014.3
20260507181924 12 249 0.0 6.4 0.00 0.00 0.00 80 1014.3
20260507181424 12 250 1.6 8.0 0.00 0.00 0.00 78 1014.3
20260507180924 13 249 4.8 8.0 0.00 0.00 0.00 77 1014.4
20260507180421 14 191 0.0 0.0 0.00 0.00 0.00 70 1014.3
20260507175921 14 191 0.0 0.0 0.00 0.00 0.00 70 1014.3
20260507175424 14 191 0.0 1.6 0.00 0.00 0.00 69 1014.3
20260507174924 14 191 0.0 6.4 0.00 0.00 0.00 69 1014.3
20260507174424 15 190 6.4 8.0 0.00 0.00 0.00 68 1014.3
20260507173924 15 196 4.8 8.0 0.00 0.00 0.00 68 1014.1
20260507173424 15 190 0.0 6.4 0.00 0.00 0.00 67 1013.9
20260507172921 15 190 6.4 11.3 0.00 0.00 0.00 67 1013.9
20260507172424 15 192 6.4 9.7 0.00 0.00 0.00 66 1014.0
20260507171924 15 201 0.0 9.7 0.00 0.00 0.00 66 1014.0
20260507171424 15 198 0.0 9.7 0.00 0.00 0.00 65 1013.9
20260507170921 15 197 4.8 11.3 0.00 0.00 0.00 64 1013.9
20260507170421 16 197 6.4 12.9 0.00 0.00 0.00 63 1013.9
20260507165921 16 195 9.7 8.0 0.00 0.00 0.00 62 1013.8
20260507165424 16 190 1.6 11.3 0.00 0.00 0.00 62 1013.9
20260507164924 16 203 4.8 12.9 0.00 0.00 0.00 61 1013.9
20260507164424 16 149 4.8 6.4 0.00 0.00 0.00 61 1013.8
20260507163924 16 152 0.0 11.3 0.00 0.00 0.00 61 1013.9
20260507163421 16 206 4.8 17.7 0.00 0.00 0.00 60 1013.8
20260507162924 16 218 3.2 12.9 0.00 0.00 0.00 60 1013.7
20260507162424 16 194 0.0 14.5 0.00 0.00 0.00 60 1013.7
20260507161924 16 173 9.7 12.9 0.00 0.00 0.00 61 1013.6
20260507161424 16 201 9.7 11.3 0.00 0.00 0.00 62 1013.6
20260507160924 16 108 3.2 14.5 0.00 0.00 0.00 61 1013.7
20260507160424 16 109 9.7 12.9 0.00 0.00 0.00 61 1013.6
20260507155924 16 114 6.4 12.9 0.00 0.00 0.00 62 1013.5
20260507155424 16 227 0.0 16.1 0.00 0.00 0.00 61 1013.3
20260507154924 16 225 4.8 17.7 0.00 0.00 0.00 60 1013.3
20260507154424 16 182 4.8 16.1 0.00 0.00 0.00 60 1013.4
20260507153924 16 146 4.8 16.1 0.00 0.00 0.00 61 1013.3
20260507153424 16 138 0.0 19.3 0.00 0.00 0.00 62 1013.4
20260507152921 16 211 9.7 17.7 0.00 0.00 0.00 61 1013.2
20260507152424 16 209 0.0 14.5 0.00 0.00 0.00 61 1013.2
20260507151924 16 115 3.2 16.1 0.00 0.00 0.00 60 1013.2
20260507151424 16 213 1.6 17.7 0.00 0.00 0.00 62 1013.2
20260507150924 16 136 11.3 16.1 0.00 0.00 0.00 62 1013.2
20260507150424 16 188 12.9 16.1 0.00 0.00 0.00 62 1013.3
20260507145924 16 163 12.9 14.5 0.00 0.00 0.00 62 1013.4
20260507145424 16 165 0.0 19.3 0.00 0.00 0.00 63 1013.4
20260507144924 16 155 3.2 24.1 0.00 0.00 0.00 63 1013.5
20260507144424 16 150 9.7 20.9 0.00 0.00 0.00 63 1013.3
20260507143924 16 233 1.6 19.3 0.00 0.00 0.00 64 1013.4
20260507143421 16 190 14.5 16.1 0.00 0.00 0.00 63 1013.4
20260507142924 16 171 1.6 25.7 0.00 0.00 0.00 64 1013.4
20260507142421 16 168 8.0 30.6 0.00 0.00 0.00 63 1013.4
20260507141924 16 88 6.4 19.3 0.00 0.00 0.00 64 1013.3
20260507141424 16 258 11.3 16.1 0.00 0.00 0.00 63 1013.3
20260507140924 16 142 6.4 25.7 0.00 0.00 0.00 63 1013.3
20260507140424 16 162 16.1 24.1 0.00 0.00 0.00 63 1013.2
20260507135924 16 137 0.0 9.7 0.00 0.00 0.00 65 1013.3
20260507135424 16 190 17.7 19.3 0.00 0.00 0.00 64 1013.3
20260507134924 16 167 9.7 24.1 0.00 0.00 0.00 64 1013.3
20260507134424 16 136 11.3 20.9 0.00 0.00 0.00 66 1013.4
20260507133924 16 208 8.0 17.7 0.00 0.00 0.00 67 1013.4
20260507133424 16 181 6.4 17.7 0.00 0.00 0.00 67 1013.4
20260507132924 16 103 3.2 20.9 0.00 0.00 0.00 67 1013.4
20260507132424 16 136 4.8 22.5 0.00 0.00 0.00 65 1013.5
20260507131923 16 227 0.0 17.7 0.00 0.00 0.00 66 1013.5
20260507131424 16 131 4.8 20.9 0.00 0.00 0.00 67 1013.4
20260507130923 16 155 19.3 27.4 0.00 0.00 0.00 67 1013.3
20260507130423 16 157 12.9 25.7 0.00 0.00 0.00 68 1013.3
20260507125923 16 197 14.5 14.5 0.00 0.00 0.00 68 1013.4
20260507125423 16 115 6.4 16.1 0.00 0.00 0.00 69 1013.4
20260507124923 16 113 4.8 19.3 0.00 0.00 0.00 71 1013.3
20260507124423 15 224 14.5 22.5 0.00 0.05 0.00 70 1013.3
20260507123920 16 207 9.7 20.9 0.00 0.08 0.00 69 1013.4
20260507123420 16 219 4.8 22.5 0.00 0.08 0.00 69 1013.4
20260507122921 16 146 3.2 16.1 0.00 0.08 0.00 68 1013.4
20260507122423 16 192 6.4 19.3 0.00 0.08 0.00 69 1013.4
20260507121923 15 180 9.7 17.7 0.00 0.08 0.00 71 1013.4
20260507121424 15 205 16.1 17.7 0.00 0.08 0.00 72 1013.5
20260507120923 15 103 11.3 16.1 0.00 0.08 0.00 72 1013.4
20260507120423 15 195 0.0 16.1 0.00 0.08 0.00 73 1013.4
20260507115923 15 142 1.6 12.9 0.00 0.08 0.00 73 1013.4
20260507115423 15 169 16.1 16.1 0.00 0.08 0.00 73 1013.5
20260507114923 15 185 4.8 20.9 0.00 0.08 0.00 73 1013.5
20260507114423 15 281 11.3 14.5 0.00 0.08 0.00 69 1013.4
20260507113923 16 213 6.4 14.5 0.00 0.08 0.00 70 1013.5
20260507113420 16 183 6.4 20.9 0.00 0.08 0.00 69 1013.4
20260507112923 16 95 0.0 14.5 0.00 0.08 0.00 72 1013.4
20260507112423 16 161 0.0 12.9 0.00 0.08 0.00 74 1013.4
20260507111923 15 202 4.8 16.1 0.00 0.08 0.00 70 1013.5
20260507111423 15 155 4.8 17.7 0.00 0.08 0.00 71 1013.4
20260507110923 15 180 4.8 16.1 0.00 0.08 0.00 72 1013.5
20260507110423 15 208 9.7 16.1 0.00 0.08 0.00 73 1013.5
20260507105923 15 169 8.0 14.5 0.00 0.08 0.00 73 1013.5
20260507105423 15 193 12.9 14.5 0.00 0.08 0.00 72 1013.5
20260507104923 15 210 6.4 16.1 0.00 0.08 0.00 74 1013.5
20260507104423 15 179 9.7 19.3 0.00 0.08 0.00 73 1013.7
20260507103923 15 135 17.7 19.3 0.00 0.08 0.00 73 1013.7
20260507103423 15 144 1.6 19.3 0.00 0.08 0.00 74 1013.7
20260507102923 15 181 12.9 20.9 0.00 0.08 0.00 73 1013.7
20260507102423 15 179 16.1 19.3 0.00 0.08 0.00 73 1013.6
20260507101920 15 207 6.4 17.7 0.00 0.08 0.00 72 1013.6
20260507101423 15 207 11.3 17.7 0.00 0.08 0.00 76 1013.7
20260507100923 15 143 3.2 14.5 0.00 0.08 0.00 75 1013.6
20260507100423 14 204 16.1 16.1 0.00 0.08 0.00 75 1013.6
20260507095923 13 196 4.8 4.8 0.00 0.08 0.00 75 1013.5
20260507095423 13 219 16.1 16.1 0.00 0.08 0.00 75 1013.6
20260507094923 13 223 4.8 17.7 0.00 0.08 0.00 77 1013.6
20260507094423 13 195 4.8 16.1 0.00 0.08 0.00 77 1013.6
20260507093923 13 194 14.5 16.1 0.00 0.08 0.00 77 1013.7
20260507093423 13 257 6.4 17.7 0.00 0.08 0.00 76 1013.6
20260507092923 13 170 3.2 14.5 0.00 0.08 0.00 80 1013.5
20260507092423 13 197 11.3 16.1 0.00 0.08 0.00 79 1013.6
20260507091923 13 233 11.3 12.9 0.00 0.08 0.00 80 1013.6
20260507091423 13 246 8.0 14.5 0.00 0.08 0.00 79 1013.5
20260507090923 13 211 6.4 17.7 0.00 0.08 0.00 80 1013.5
20260507090423 13 200 14.5 14.5 0.00 0.08 0.00 81 1013.5
20260507085923 13 182 8.0 12.9 0.00 0.08 0.00 80 1013.4
20260507085423 12 160 6.4 12.9 0.00 0.08 0.00 84 1013.3
20260507084923 12 188 3.2 12.9 0.00 0.08 0.00 84 1013.5
20260507084423 12 148 0.0 9.7 0.00 0.10 0.00 85 1013.5
20260507083923 12 178 6.4 14.5 0.00 0.10 0.00 85 1013.4
20260507083423 11 214 4.8 14.5 0.00 0.10 0.00 85 1013.4
20260507082923 11 171 3.2 12.9 0.00 0.10 0.00 85 1013.3
20260507082423 11 192 9.7 11.3 0.00 0.10 0.00 86 1013.3
20260507081923 11 186 9.7 0.0 0.00 0.10 0.00 87 1013.3
20260507081423 11 186 9.7 9.7 0.00 0.10 0.00 87 1013.4
20260507080923 11 206 1.6 3.2 0.00 0.10 0.00 86 1013.3
20260507080420 11 206 3.2 9.7 0.00 0.13 0.00 86 1013.3
20260507075923 11 206 4.8 9.7 0.00 0.18 0.00 86 1013.3
20260507075420 11 195 6.4 9.7 0.00 0.18 0.00 86 1013.3
20260507074923 11 157 0.0 9.7 0.00 0.20 0.00 87 1013.3
20260507074423 11 118 1.6 11.3 0.00 0.28 0.00 86 1013.3
20260507073923 11 182 8.0 9.7 0.00 0.28 0.00 86 1013.2
20260507073423 11 144 6.4 9.7 0.00 0.28 0.00 85 1013.2
20260507072923 11 142 6.4 12.9 0.00 0.30 0.00 84 1013.2
20260507072423 11 128 4.8 16.1 0.00 0.33 0.00 84 1013.2
20260507071923 11 215 4.8 12.9 0.00 0.36 0.00 83 1013.1
20260507071423 11 143 6.4 17.7 0.00 0.41 0.00 84 1012.9
20260507070923 11 170 8.0 9.7 0.00 0.46 0.00 85 1012.8
20260507070423 11 123 1.6 8.0 0.00 0.56 0.00 86 1012.9
20260507065923 11 123 4.8 14.5 0.00 0.66 0.00 87 1013.0
20260507065423 10 213 8.0 14.5 0.00 0.74 0.00 89 1012.9
20260507064923 10 158 8.0 14.5 0.00 0.74 0.00 89 1012.8
20260507064423 10 201 8.0 12.9 0.00 0.81 0.00 88 1013.0
20260507063923 10 213 4.8 14.5 0.00 0.84 0.00 88 1012.8
20260507063423 10 142 4.8 16.1 0.00 0.91 0.00 87 1012.8
20260507062923 10 213 4.8 14.5 0.00 0.97 0.00 89 1012.8
20260507062423 10 163 1.6 14.5 0.00 0.97 0.00 91 1012.7
20260507061923 10 237 4.8 16.1 0.00 1.02 0.00 90 1012.7
20260507061423 10 158 4.8 16.1 0.00 1.02 0.00 90 1012.6
20260507060923 10 208 4.8 20.9 0.00 1.02 0.00 91 1012.7
20260507060423 9 201 6.4 14.5 0.00 1.12 0.00 91 1012.7
20260507055923 9 182 6.4 11.3 0.00 1.24 0.00 91 1012.6
20260507055423 9 208 4.8 9.7 0.00 1.30 0.00 91 1012.5
20260507054920 9 193 8.0 11.3 0.00 1.32 0.00 91 1012.6
20260507054423 9 221 6.4 9.7 0.00 1.45 0.00 91 1012.6
20260507053923 8 194 8.0 8.0 0.00 1.52 0.00 91 1012.7
20260507053423 8 206 1.6 6.4 0.00 1.52 0.00 91 1012.6
20260507052923 8 200 3.2 6.4 0.00 1.55 0.00 91 1012.7
20260507052423 8 130 1.6 6.4 0.00 1.57 0.00 91 1012.6
20260507051923 8 126 0.0 0.0 0.00 1.65 0.00 91 1012.5
20260507051423 8 126 0.0 3.2 0.00 1.65 0.00 90 1012.5
20260507050923 8 126 0.0 0.0 0.00 1.65 0.00 90 1012.3
20260507050423 8 126 0.0 0.0 0.00 1.70 0.00 89 1012.2
20260507045923 8 126 0.0 0.0 0.00 1.78 0.00 89 1012.2
20260507045423 8 126 0.0 0.0 0.00 1.80 0.00 89 1012.2
20260507044923 8 126 0.0 0.0 0.00 1.80 0.00 89 1012.2
20260507044423 8 126 0.0 0.0 0.00 1.80 0.00 88 1012.1
20260507043923 8 126 0.0 0.0 0.00 1.80 0.00 88 1012.0
20260507043423 8 126 0.0 0.0 0.00 1.80 0.00 88 1012.0
20260507042920 8 126 0.0 4.8 0.00 1.88 0.00 88 1012.0
20260507042423 8 126 4.8 4.8 0.00 1.96 0.00 88 1011.9
20260507041923 8 155 0.0 3.2 0.00 1.98 0.00 88 1011.9
20260507041420 8 155 0.0 6.4 0.00 1.98 0.00 87 1011.9
20260507040923 8 180 0.0 4.8 0.00 2.01 0.00 87 1011.9
20260507040423 8 180 0.0 0.0 0.00 2.11 0.00 87 1011.8
20260507035920 8 180 0.0 0.0 0.00 2.16 0.00 87 1011.9
20260507035420 8 180 0.0 0.0 0.00 2.18 0.00 87 1011.9
20260507034923 8 180 0.0 0.0 0.00 2.24 0.00 87 1011.7
20260507034420 8 180 0.0 0.0 0.00 2.26 0.00 87 1011.8
20260507033922 8 180 0.0 0.0 0.00 2.31 0.00 87 1011.6
20260507033423 8 180 0.0 0.0 0.00 2.36 0.00 87 1011.6
20260507032923 8 180 0.0 0.0 0.00 2.49 0.00 87 1011.7
20260507032422 8 180 0.0 0.0 0.00 2.59 0.00 87 1011.8
20260507031922 8 180 0.0 4.8 0.00 2.67 0.00 87 1011.8
20260507031422 8 180 3.2 6.4 0.00 2.72 0.00 87 1011.9
20260507030919 8 174 0.0 0.0 0.00 2.74 0.00 87 1011.8
20260507030422 8 174 0.0 0.0 0.00 2.77 0.00 87 1011.8
20260507025922 8 174 0.0 8.0 0.00 2.77 0.00 87 1011.9
20260507025422 8 175 0.0 0.0 0.00 2.77 0.00 87 1011.8
20260507024922 8 174 0.0 0.0 0.00 2.79 0.00 87 1011.9
20260507024422 8 174 0.0 3.2 0.00 2.79 0.00 87 1011.8
20260507023922 8 175 1.6 4.8 0.00 2.82 0.00 87 1011.8
20260507023422 8 162 1.6 8.0 0.00 2.90 0.00 87 1011.9
20260507022919 8 152 0.0 4.8 0.00 3.02 0.00 87 1012.0
20260507022419 8 192 3.2 6.4 0.00 3.17 0.00 87 1012.0
20260507021922 8 182 0.0 4.8 0.00 3.38 0.00 87 1011.9
20260507021422 8 182 0.0 8.0 0.00 3.61 0.00 87 1012.0
20260507020922 8 184 1.6 14.5 0.00 3.84 0.00 87 1012.0
20260507020422 8 196 4.8 11.3 0.00 4.04 0.00 87 1011.9
20260507015922 8 134 0.0 11.3 0.00 4.14 0.00 87 1012.0
20260507015422 8 146 8.0 11.3 0.00 4.29 0.00 87 1012.2
20260507014919 8 150 0.0 11.3 0.00 4.32 0.00 87 1011.9
20260507014422 9 207 3.2 11.3 0.00 4.37 0.00 87 1012.0
20260507013922 9 221 0.0 12.9 0.00 4.45 0.00 87 1012.0
20260507013422 9 180 1.6 8.0 0.00 4.45 0.00 86 1012.0
20260507012919 9 157 4.8 17.7 0.00 4.47 0.00 87 1012.0
20260507012422 9 155 9.7 12.9 0.00 4.47 0.00 86 1011.9
20260507011922 9 153 6.4 17.7 0.00 4.50 0.00 87 1012.0
20260507011422 9 109 6.4 22.5 0.00 4.52 0.00 87 1012.0
20260507010922 9 205 0.0 6.4 0.00 4.55 0.00 87 1012.0
20260507010422 9 119 3.2 19.3 0.00 4.55 0.00 87 1012.0
20260507005922 9 205 4.8 12.9 0.00 4.57 0.00 87 1012.0
20260507005422 9 159 12.9 19.3 0.00 4.60 0.00 87 1012.1
20260507004922 9 163 0.0 16.1 0.00 4.70 0.00 87 1012.0
20260507004422 9 202 4.8 16.1 0.00 4.98 0.00 86 1012.1
20260507003922 10 200 4.8 20.9 0.00 5.18 0.00 86 1011.9
20260507003422 10 155 6.4 19.3 0.00 5.41 0.00 86 1012.0
20260507002922 10 196 0.0 14.5 0.00 5.74 0.00 87 1012.2
20260507002422 10 199 14.5 19.3 0.00 6.10 0.00 87 1012.1
20260507001919 10 225 8.0 19.3 0.00 6.38 0.00 87 1012.2
20260507001422 10 220 17.7 20.9 0.00 6.53 0.00 87 1012.2
20260507000922 10 217 4.8 17.7 0.00 6.86 0.00 87 1012.3
20260507000422 10 211 4.8 12.9 0.00 7.01 0.00 87 1012.3
20260506235919 10 207 6.4 14.5 0.00 7.04 0.00 87 1012.3
20260506235422 10 227 9.7 14.5 0.00 7.06 0.00 87 1012.3
20260506234922 10 214 6.4 12.9 0.00 7.19 0.00 87 1012.3
20260506234422 10 191 6.4 16.1 0.00 7.24 0.00 87 1012.3
20260506233922 10 198 12.9 12.9 0.00 7.29 0.00 87 1012.4
20260506233419 10 206 1.6 17.7 0.00 7.32 0.00 87 1012.4
20260506232922 10 120 3.2 16.1 0.00 7.32 0.00 87 1012.3